TimeEDT,TemperatureF,Dew PointF,Humidity,Sea Level PressureIn,VisibilityMPH,Wind Direction,Wind SpeedMPH,Gust SpeedMPH,PrecipitationIn,Events,Conditions,WindDirDegrees,DateUTC
12:24 AM,64.4,62.6,94,29.89,10.0,Calm,Calm,-,N/A,Rain,Light Rain,0,2012-10-01 04:24:00
12:31 AM,64.4,62.6,94,29.89,10.0,Calm,Calm,-,N/A,,Scattered Clouds,0,2012-10-01 04:31:00
12:55 AM,65.1,62.8,92,29.89,10.0,Calm,Calm,-,0.00,,Scattered Clouds,0,2012-10-01 04:55:00
1:33 AM,64.4,62.6,94,29.89,10.0,Calm,Calm,-,N/A,Rain,Light Rain,0,2012-10-01 05:33:00
1:55 AM,64.8,63.5,96,29.89,10.0,SSE,3.5,-,0.00,Rain,Light Rain,150,2012-10-01 05:55:00
2:07 AM,64.4,64.4,100,29.89,10.0,Calm,Calm,-,N/A,,Clear,0,2012-10-01 06:07:00
2:16 AM,64.4,64.4,100,29.89,10.0,Calm,Calm,-,N/A,Rain,Light Rain,0,2012-10-01 06:16:00
2:25 AM,64.4,64.4,100,29.88,10.0,Calm,Calm,-,N/A,Rain,Light Rain,0,2012-10-01 06:25:00
2:37 AM,64.4,64.4,100,29.88,9.0,ESE,3.5,-,N/A,Rain,Light Rain,110,2012-10-01 06:37:00
2:55 AM,64.0,63.7,99,29.87,9.0,Calm,Calm,-,0.00,Rain,Light Rain,0,2012-10-01 06:55:00
3:07 AM,64.4,64.4,100,29.87,10.0,Calm,Calm,-,N/A,,Overcast,0,2012-10-01 07:07:00
3:55 AM,62.8,62.6,99,29.87,8.0,ESE,3.5,-,0.00,,Overcast,110,2012-10-01 07:55:00
4:23 AM,62.6,60.8,94,29.87,3.0,Calm,Calm,-,N/A,Rain,Light Rain,0,2012-10-01 08:23:00
4:28 AM,62.6,60.8,94,29.87,3.0,ENE,4.6,-,N/A,Rain,Light Rain,70,2012-10-01 08:28:00
4:33 AM,62.6,60.8,94,29.87,3.0,ENE,4.6,-,N/A,Rain,Light Rain,70,2012-10-01 08:33:00
4:38 AM,60.8,60.8,100,29.87,3.0,ENE,6.9,-,N/A,Rain,Light Rain,70,2012-10-01 08:38:00
4:55 AM,61.2,60.8,99,29.87,3.0,Variable,5.8,-,0.00,Rain,Light Rain,0,2012-10-01 08:55:00
5:10 AM,60.8,60.8,100,29.87,3.0,ESE,3.5,-,N/A,Rain,Light Rain,110,2012-10-01 09:10:00
5:23 AM,60.8,60.8,100,29.87,3.0,East,3.5,-,N/A,Rain,Light Rain,90,2012-10-01 09:23:00
5:30 AM,60.8,60.8,100,29.87,4.0,East,5.8,-,N/A,Rain,Light Rain,80,2012-10-01 09:30:00
5:38 AM,60.8,60.8,100,29.87,4.0,ENE,5.8,-,N/A,Rain,Light Rain,70,2012-10-01 09:38:00
5:55 AM,60.6,60.3,99,29.87,4.0,East,5.8,-,0.00,Rain,Light Rain,80,2012-10-01 09:55:00
6:13 AM,60.8,60.8,100,29.88,3.0,NE,3.5,-,N/A,Rain,Light Rain,40,2012-10-01 10:13:00
6:22 AM,60.8,60.8,100,29.87,3.0,NE,6.9,-,N/A,Rain,Light Rain,50,2012-10-01 10:22:00
6:55 AM,60.6,60.3,99,29.88,3.0,ENE,6.9,-,0.00,Rain,Light Rain,60,2012-10-01 10:55:00
7:37 AM,60.8,60.8,100,29.88,8.0,ENE,5.8,-,N/A,,Overcast,70,2012-10-01 11:37:00
7:55 AM,60.8,60.6,99,29.88,9.0,ENE,5.8,-,0.04,,Overcast,60,2012-10-01 11:55:00
8:02 AM,60.8,60.8,100,29.88,4.0,ENE,5.8,-,N/A,Rain,Light Rain,60,2012-10-01 12:02:00
8:13 AM,60.8,60.8,100,29.89,10.0,ENE,3.5,-,N/A,,Overcast,70,2012-10-01 12:13:00
8:39 AM,60.8,60.8,100,29.90,10.0,East,6.9,-,N/A,Rain,Light Rain,80,2012-10-01 12:39:00
8:40 AM,60.8,60.8,100,29.90,9.0,East,6.9,-,N/A,Rain,Light Rain,80,2012-10-01 12:40:00
8:55 AM,61.3,61.0,99,29.90,8.0,East,5.8,-,0.01,,Overcast,90,2012-10-01 12:55:00
9:04 AM,60.8,60.8,100,29.91,9.0,Calm,Calm,-,N/A,,Overcast,0,2012-10-01 13:04:00
9:15 AM,60.8,60.8,100,29.90,10.0,NE,4.6,-,N/A,,Overcast,50,2012-10-01 13:15:00
9:24 AM,62.6,60.8,94,29.91,9.0,NE,4.6,-,N/A,,Overcast,50,2012-10-01 13:24:00
9:30 AM,62.6,60.8,94,29.91,9.0,NNE,4.6,-,N/A,,Overcast,30,2012-10-01 13:30:00
9:39 AM,62.6,60.8,94,29.92,10.0,NNW,5.8,-,N/A,,Overcast,340,2012-10-01 13:39:00
9:55 AM,61.7,61.3,99,29.93,10.0,North,3.5,-,N/A,,Overcast,350,2012-10-01 13:55:00
10:05 AM,62.6,60.8,94,29.93,10.0,NE,5.8,-,N/A,Rain,Light Rain,40,2012-10-01 14:05:00
10:16 AM,62.6,60.8,94,29.93,10.0,NNE,3.5,-,N/A,,Overcast,20,2012-10-01 14:16:00
10:24 AM,62.6,60.8,94,29.93,10.0,NNE,4.6,-,N/A,,Overcast,20,2012-10-01 14:24:00
10:55 AM,62.4,61.5,97,29.92,10.0,NNE,4.6,-,0.00,,Overcast,20,2012-10-01 14:55:00
11:55 AM,63.7,61.3,92,29.90,10.0,ENE,9.2,-,0.00,,Overcast,60,2012-10-01 15:55:00
12:11 PM,64.4,60.8,88,29.90,10.0,NE,5.8,-,N/A,Rain,Light Rain,40,2012-10-01 16:11:00
12:21 PM,64.4,62.6,94,29.90,10.0,NE,5.8,-,N/A,,Overcast,50,2012-10-01 16:21:00
12:55 PM,65.7,62.1,88,29.89,10.0,ENE,10.4,-,0.00,,Overcast,70,2012-10-01 16:55:00
1:55 PM,67.8,62.8,84,29.88,10.0,ENE,8.1,-,N/A,,Overcast,70,2012-10-01 17:55:00
2:55 PM,70.0,63.9,81,29.86,10.0,ENE,6.9,-,N/A,,Overcast,70,2012-10-01 18:55:00
3:55 PM,70.5,64.8,82,29.86,10.0,NE,5.8,-,N/A,,Overcast,50,2012-10-01 19:55:00
4:55 PM,71.6,66.0,82,29.86,10.0,ENE,5.8,-,N/A,,Overcast,60,2012-10-01 20:55:00
5:55 PM,72.1,66.7,83,29.85,10.0,NE,6.9,-,N/A,,Overcast,50,2012-10-01 21:55:00
6:55 PM,70.9,66.9,87,29.85,10.0,NE,4.6,-,N/A,,Overcast,40,2012-10-01 22:55:00
7:24 PM,69.8,66.2,88,29.85,10.0,NE,5.8,-,N/A,,Overcast,50,2012-10-01 23:24:00
7:38 PM,69.8,68.0,94,29.84,10.0,NE,4.6,-,N/A,Rain,Light Rain,50,2012-10-01 23:38:00
7:55 PM,70.2,67.6,92,29.85,10.0,NE,4.6,-,0.00,Rain,Light Rain,50,2012-10-01 23:55:00
8:55 PM,70.0,68.2,94,29.85,10.0,ENE,6.9,-,0.00,,Overcast,70,2012-10-02 00:55:00
9:55 PM,70.2,68.9,96,29.86,10.0,East,6.9,-,N/A,,Overcast,80,2012-10-02 01:55:00
10:04 PM,69.8,69.8,100,29.86,10.0,East,5.8,-,N/A,,Overcast,80,2012-10-02 02:04:00
10:30 PM,69.8,69.8,100,29.86,10.0,East,5.8,-,N/A,,Mostly Cloudy,90,2012-10-02 02:30:00
10:55 PM,70.5,69.6,97,29.86,10.0,East,5.8,-,0.00,,Overcast,90,2012-10-02 02:55:00
11:00 PM,69.8,69.8,100,29.86,10.0,East,4.6,-,N/A,,Overcast,80,2012-10-02 03:00:00
11:15 PM,71.6,69.8,94,29.86,8.0,East,4.6,-,N/A,Rain,Light Rain,100,2012-10-02 03:15:00
11:16 PM,71.6,69.8,94,29.86,8.0,Variable,4.6,-,N/A,Rain,Light Rain,0,2012-10-02 03:16:00
11:31 PM,69.8,69.8,100,29.86,10.0,East,4.6,-,N/A,,Overcast,90,2012-10-02 03:31:00
11:35 PM,69.8,69.8,100,29.86,10.0,East,4.6,-,N/A,,Overcast,90,2012-10-02 03:35:00
11:46 PM,71.6,69.8,94,29.86,9.0,Calm,Calm,-,N/A,,Overcast,0,2012-10-02 03:46:00
11:55 PM,70.7,70.3,99,29.85,8.0,East,4.6,-,0.01,,Overcast,90,2012-10-02 03:55:00